Volver al catálogo

BREEZE-M R/B

ActivoHEO
NORAD 33438·ROCKET BODY·🇷🇺 Russia

Lanzado Nov 5, 2008 desde Baikonur Cosmodrome

Loading…

Próximos Pases (próximas 24 horas)

TLE

ActualizadoSource: Space-Track

Época: Sep 13, 2026, 23:25 UTC

1 33438U 08057C   26256.97580619 -.00000178  00000-0  00000-0 0  9994
2 33438  19.8757 114.4119 5873958 300.6940  14.3290  2.00031089130408

Sigue BREEZE-M R/B en tiempo real con AllMySat

Download on the App Store